This is the latest recevied weather packets stored in our database for station/object DO1MIT-10. If no packets are shown the sender has not sent any weather packets the latest 10 day(s).
| Time | Temp. | Humidity | Pressure | Rain* | Wind** | Luminosity | Snow |
|---|---|---|---|---|---|---|---|
| 1777627171 | 17.22° C | 53% | 1032.1 hPa | - | - | - | - |
| 1777626270 | 16.67° C | 55% | 1032.3 hPa | - | - | - | - |
| 1777625370 | 16.11° C | 56% | 1032.3 hPa | - | - | - | - |
| 1777624470 | 16.11° C | 56% | 1032.4 hPa | - | - | - | - |
| 1777623570 | 15.56° C | 57% | 1032.6 hPa | - | - | - | - |
| 1777622670 | 15° C | 59% | 1032.4 hPa | - | - | - | - |
| 1777621770 | 14.44° C | 60% | 1032.4 hPa | - | - | - | - |
| 1777620870 | 13.33° C | 61% | 1032.3 hPa | - | - | - | - |
| 1777619970 | 13.33° C | 62% | 1032.5 hPa | - | - | - | - |
| 1777619070 | 12.22° C | 63% | 1032.4 hPa | - | - | - | - |
| 1777618170 | 11.67° C | 64% | 1032.4 hPa | - | - | - | - |
| 1777617270 | 10.56° C | 65% | 1032.5 hPa | - | - | - | - |
| 1777616370 | 10° C | 66% | 1032.4 hPa | - | - | - | - |
| 1777615469 | 8.89° C | 67% | 1032.5 hPa | - | - | - | - |
| 1777614569 | 8.33° C | 67% | 1032.4 hPa | - | - | - | - |
| 1777613669 | 7.22° C | 68% | 1032.5 hPa | - | - | - | - |
| 1777612769 | 6.67° C | 69% | 1032.4 hPa | - | - | - | - |
| 1777611869 | 5.56° C | 69% | 1032.3 hPa | - | - | - | - |
| 1777610969 | 4.44° C | 70% | 1032.2 hPa | - | - | - | - |
| 1777610069 | 3.89° C | 70% | 1032.1 hPa | - | - | - | - |
| 1777609169 | 3.89° C | 70% | 1032 hPa | - | - | - | - |
| 1777608269 | 3.33° C | 69% | 1032.1 hPa | - | - | - | - |
| 1777607369 | 3.33° C | 69% | 1032.1 hPa | - | - | - | - |
| 1777606469 | 3.33° C | 69% | 1031.9 hPa | - | - | - | - |
| 1777605568 | 3.33° C | 69% | 1031.9 hPa | - | - | - | - |
* Rain since midnight (hover to see other rain measurements)
** Current wind speed in m/s (hover to see current wind gust speed)